Date String (YYYY-MM-DD hh:mm:ss) UTC,Instrument flags,Ambient pressure (hPa),Sample flow (lpm),Bypass flow (lpm),Sample temperature (°C),Ambient temperature (°C),ASC tube jacket temperature (°C),LED temperature (°C),Box temperature (°C),Sample RH (%),Span deviation,Mass concentration (μg/m³),Mass concentration (μg/m³),Mass concentration (μg/m³)
DateTimeUTC,F1_M11,P_M11,Q1_M11,Q2_M11,T1_M11,T2_M11,T3_M11,T4_M11,T5_M11,U1_M11,ZSPAN_M11,X0_M11,X2_M11,X1_M11
2022-09-28 05:00:00,,0834.1,4.99,0.00,30.5,29.3,00.0,39.2,32.4,18.8,0000.0,0009.80,0003.92,0003.28
2022-09-28 05:01:00,,0834.1,5.01,0.00,30.5,29.3,00.0,39.2,32.4,18.7,0000.0,0010.12,0003.95,0003.31
2022-09-28 05:02:00,,0834.1,4.99,0.00,30.5,29.3,00.0,39.2,32.4,18.6,0000.0,0010.58,0003.96,0003.32
2022-09-28 05:03:00,,0834.1,5.00,0.00,30.6,29.3,00.0,39.2,32.4,18.7,0000.0,0010.86,0003.98,0003.34
2022-09-28 05:04:00,,0834.1,5.00,0.00,30.6,29.3,00.0,39.2,32.5,18.6,0000.0,0010.95,0004.02,0003.37
2022-09-28 05:05:00,,0834.1,4.99,0.00,30.6,29.3,00.0,39.2,32.5,18.4,0000.0,0010.88,0004.03,0003.39
2022-09-28 05:06:00,,0834.1,5.01,0.00,30.6,29.3,00.0,39.3,32.5,18.0,0000.0,0010.17,0004.03,0003.37
2022-09-28 05:07:00,,0834.1,4.99,0.00,30.6,29.3,00.0,39.3,32.5,17.8,0000.0,0009.55,0003.98,0003.35
2022-09-28 05:08:00,,0834.1,5.01,0.00,30.6,29.3,00.0,39.3,32.5,18.0,0000.0,0009.23,0003.96,0003.34
2022-09-28 05:09:00,,0834.0,5.00,0.00,30.6,29.3,00.0,39.3,32.5,18.1,0000.0,0009.13,0003.93,0003.32
2022-09-28 05:10:00,,0834.0,5.01,0.00,30.6,29.3,00.0,39.3,32.5,18.2,0000.0,0009.39,0003.91,0003.28
2022-09-28 05:11:00,,0834.1,4.99,0.00,30.6,29.3,00.0,39.3,32.5,18.1,0000.0,0010.17,0003.89,0003.25
2022-09-28 05:12:00,,0834.1,5.01,0.00,30.7,29.4,00.0,39.3,32.5,18.2,0000.0,0010.59,0003.87,0003.23
2022-09-28 05:13:00,,0834.0,5.00,0.00,30.7,28.5,00.0,39.3,32.5,18.3,0000.0,0010.64,0003.86,0003.22
2022-09-28 05:14:00,,0834.0,5.00,0.00,30.6,27.2,00.0,39.3,32.4,18.5,0000.0,0010.61,0003.85,0003.21
2022-09-28 05:15:00,,0834.0,4.99,0.00,30.6,27.0,00.0,39.2,32.2,18.6,0000.0,0011.06,0003.87,0003.21
2022-09-28 05:16:00,,0834.0,5.01,0.00,30.4,27.2,00.0,39.2,32.1,18.8,0000.0,0011.38,0003.93,0003.23
2022-09-28 05:17:00,,0834.0,5.00,0.00,30.4,27.5,00.0,39.1,32.0,18.9,0000.0,0011.43,0004.01,0003.26
2022-09-28 05:18:00,,0834.0,5.01,0.00,30.3,27.7,00.0,39.1,32.0,18.9,0000.0,0011.58,0004.07,0003.31
2022-09-28 05:19:00,,0834.0,4.99,0.00,30.3,28.0,00.0,39.1,32.0,18.9,0000.0,0011.62,0004.13,0003.34
2022-09-28 05:20:00,,0834.0,5.01,0.00,30.3,28.1,00.0,39.1,32.0,18.9,0000.0,0011.70,0004.15,0003.36
2022-09-28 05:21:00,,0834.0,5.01,0.00,30.2,28.3,00.0,39.1,32.0,18.8,0000.0,0011.21,0004.12,0003.36
2022-09-28 05:22:00,,0834.0,4.99,0.00,30.2,28.4,00.0,39.0,32.0,19.0,0000.0,0010.31,0004.09,0003.37
2022-09-28 05:23:00,,0834.0,5.00,0.00,30.2,28.5,00.0,39.0,32.0,19.3,0000.0,0009.73,0004.20,0003.42
2022-09-28 05:24:00,,0834.0,4.99,0.00,30.2,28.5,00.0,39.0,32.0,19.4,0000.0,0009.56,0004.36,0003.51
2022-09-28 05:25:00,,0834.0,5.00,0.00,30.2,28.6,00.0,39.0,32.0,19.5,0000.0,0009.79,0004.56,0003.62
2022-09-28 05:26:00,,0834.0,5.00,0.00,30.2,28.7,00.0,39.0,32.1,19.5,0000.0,0010.42,0004.70,0003.71
2022-09-28 05:27:00,,0834.0,5.00,0.00,30.2,28.7,00.0,39.0,32.1,19.5,0000.0,0010.80,0004.79,0003.79
2022-09-28 05:28:00,,0834.0,4.99,0.00,30.2,28.8,00.0,39.0,32.1,19.5,0000.0,0011.11,0004.89,0003.86
2022-09-28 05:29:00,,0834.0,5.01,0.00,30.2,28.8,00.0,39.0,32.1,19.5,0000.0,0011.89,0005.06,0003.95
2022-09-28 05:30:00,,0834.0,4.99,0.00,30.3,28.8,00.0,39.0,32.1,19.5,0000.0,0013.33,0005.21,0004.07
2022-09-28 05:31:00,,0834.0,4.99,0.00,30.3,28.9,00.0,39.0,32.1,19.5,0000.0,0013.53,0005.35,0004.18
2022-09-28 05:32:00,,0834.0,5.01,0.00,30.3,28.9,00.0,39.0,32.1,19.6,0000.0,0014.58,0005.56,0004.32
2022-09-28 05:33:00,,0833.9,4.99,0.00,30.3,28.9,00.0,39.0,32.2,19.6,0000.1,0016.29,0005.79,0004.48
2022-09-28 05:34:00,,0833.9,5.00,0.00,30.3,28.9,00.0,39.0,32.2,19.6,0001.9,0016.63,0005.97,0004.64
2022-09-28 05:35:00,,0833.9,5.00,0.00,30.3,29.0,00.0,39.0,32.2,19.6,0000.5,0017.04,0006.14,0004.78
2022-09-28 05:36:00,,0833.9,4.99,0.00,30.3,29.0,00.0,39.0,32.2,19.7,0000.6,0017.80,0006.32,0004.91
2022-09-28 05:37:00,,0833.9,5.00,0.00,30.4,29.0,00.0,39.0,32.2,19.6,-000.1,0017.69,0006.45,0005.02
2022-09-28 05:38:00,,0833.9,5.00,0.00,30.4,29.0,00.0,39.1,32.2,19.6,0000.2,0017.71,0006.65,0005.17
2022-09-28 05:39:00,,0833.9,5.01,0.00,30.4,29.0,00.0,39.1,32.3,19.6,0000.4,0019.00,0006.80,0005.29
2022-09-28 05:40:00,,0833.9,4.99,0.00,30.4,29.0,00.0,39.1,32.3,19.5,0000.3,0018.84,0006.88,0005.39
2022-09-28 05:41:00,,0834.0,5.00,0.00,30.4,29.1,00.0,39.1,32.3,19.4,0000.4,0018.09,0006.94,0005.42
2022-09-28 05:42:00,,0834.0,5.01,0.00,30.4,29.1,00.0,39.1,32.3,19.4,0000.6,0017.93,0007.02,0005.45
2022-09-28 05:43:00,,0834.0,4.99,0.00,30.4,29.0,00.0,39.1,32.3,19.4,0000.5,0017.73,0006.98,0005.43
2022-09-28 05:44:00,,0834.0,5.01,0.00,30.4,29.0,00.0,39.1,32.3,19.4,0000.5,0015.82,0006.88,0005.38
2022-09-28 05:45:00,,0834.0,4.99,0.00,30.4,29.0,00.0,39.1,32.3,19.4,0001.0,0015.65,0006.83,0005.32
2022-09-28 05:46:00,,0834.0,5.01,0.00,30.4,29.0,00.0,39.1,32.3,19.4,0000.6,0015.38,0006.65,0005.21
2022-09-28 05:47:00,,0834.0,5.00,0.00,30.4,29.0,00.0,39.2,32.3,19.4,0000.0,0014.57,0006.41,0005.05
2022-09-28 05:48:00,,0833.9,5.01,0.00,30.4,29.0,00.0,39.2,32.3,19.3,0000.0,0014.41,0006.10,0004.86
2022-09-28 05:49:00,,0833.9,4.99,0.00,30.4,29.0,00.0,39.2,32.3,19.3,0000.0,0014.52,0005.79,0004.65
2022-09-28 05:50:00,,0833.9,5.00,0.00,30.5,29.0,00.0,39.2,32.3,19.5,0000.0,0013.64,0005.58,0004.49
2022-09-28 05:51:00,,0833.9,5.00,0.00,30.5,29.1,00.0,39.2,32.3,19.5,0000.0,0013.16,0005.42,0004.37
2022-09-28 05:52:00,,0833.9,5.00,0.00,30.5,29.1,00.0,39.2,32.3,19.5,0000.0,0012.67,0005.29,0004.30
2022-09-28 05:53:00,,0833.9,5.01,0.00,30.5,29.0,00.0,39.2,32.3,19.6,0000.0,0012.26,0005.11,0004.20
2022-09-28 05:54:00,,0833.8,5.00,0.00,30.5,29.0,00.0,39.2,32.3,19.5,0000.0,0012.07,0005.02,0004.14
2022-09-28 05:55:00,,0833.9,5.00,0.00,30.5,29.1,00.0,39.2,32.3,19.5,0000.0,0012.05,0004.93,0004.07
2022-09-28 05:56:00,,0833.9,5.00,0.00,30.5,29.0,00.0,39.2,32.3,19.4,0000.0,0013.28,0004.74,0003.97
2022-09-28 05:57:00,,0833.9,5.00,0.00,30.5,29.0,00.0,39.2,32.3,19.3,0000.0,0013.06,0004.58,0003.86
2022-09-28 05:58:00,,0833.8,4.99,0.00,30.5,29.0,00.0,39.2,32.3,19.3,0000.0,0012.68,0004.44,0003.76
2022-09-28 05:59:00,,0833.9,5.01,0.00,30.5,29.1,00.0,39.2,32.3,19.3,0000.0,0012.26,0004.30,0003.68
